TimeCDT,TemperatureF,Dew PointF,Humidity,Sea Level PressureIn,VisibilityMPH,Wind Direction,Wind SpeedMPH,Gust SpeedMPH,PrecipitationIn,Events,Conditions,WindDirDegrees,DateUTC
12:53 AM,60.1,54.0,80,29.86,10.0,NE,5.8,-,N/A,,Clear,40,2013-09-23 05:53:00
1:53 AM,62.1,55.0,78,29.86,10.0,ENE,5.8,-,N/A,,Clear,70,2013-09-23 06:53:00
2:53 AM,59.0,54.0,83,29.86,10.0,ENE,4.6,-,N/A,,Clear,60,2013-09-23 07:53:00
3:53 AM,59.0,54.0,83,29.86,10.0,ENE,4.6,-,N/A,,Clear,60,2013-09-23 08:53:00
4:53 AM,59.0,54.0,83,29.87,10.0,ENE,3.5,-,N/A,,Clear,60,2013-09-23 09:53:00
5:53 AM,57.0,54.0,89,29.88,10.0,NE,3.5,-,N/A,,Clear,50,2013-09-23 10:53:00
6:53 AM,55.9,53.1,90,29.88,10.0,ENE,4.6,-,N/A,,Clear,60,2013-09-23 11:53:00
7:53 AM,60.1,55.9,86,29.89,10.0,NE,5.8,-,N/A,,Clear,50,2013-09-23 12:53:00
8:53 AM,66.9,57.0,70,29.90,10.0,ENE,5.8,-,N/A,,Clear,70,2013-09-23 13:53:00
9:53 AM,72.0,57.0,59,29.91,10.0,ENE,5.8,-,N/A,,Clear,70,2013-09-23 14:53:00
10:53 AM,77.0,55.0,47,29.91,10.0,ESE,6.9,-,N/A,,Clear,110,2013-09-23 15:53:00
11:53 AM,79.0,55.0,44,29.90,10.0,Calm,Calm,-,N/A,,Clear,0,2013-09-23 16:53:00
12:53 PM,82.9,55.0,38,29.88,10.0,Calm,Calm,-,N/A,,Clear,0,2013-09-23 17:53:00
1:53 PM,84.9,55.0,36,29.84,10.0,Calm,Calm,-,N/A,,Clear,0,2013-09-23 18:53:00
2:53 PM,86.0,55.0,35,29.83,10.0,Variable,3.5,-,N/A,,Clear,0,2013-09-23 19:53:00
3:53 PM,88.0,55.0,32,29.82,10.0,East,6.9,-,N/A,,Clear,80,2013-09-23 20:53:00
4:53 PM,88.0,55.0,32,29.81,10.0,East,4.6,-,N/A,,Clear,90,2013-09-23 21:53:00
5:53 PM,87.1,57.0,36,29.81,10.0,ESE,3.5,-,N/A,,Clear,110,2013-09-23 22:53:00
6:53 PM,81.0,60.1,49,29.82,10.0,Calm,Calm,-,N/A,,Clear,0,2013-09-23 23:53:00
7:53 PM,73.0,62.1,68,29.82,10.0,Calm,Calm,-,N/A,,Clear,0,2013-09-24 00:53:00
8:53 PM,73.0,64.9,76,29.84,10.0,Calm,Calm,-,N/A,,Mostly Cloudy,0,2013-09-24 01:53:00
9:53 PM,71.1,64.9,81,29.85,10.0,East,3.5,-,N/A,,Clear,90,2013-09-24 02:53:00
10:53 PM,73.0,66.0,79,29.86,10.0,Calm,Calm,-,N/A,,Mostly Cloudy,0,2013-09-24 03:53:00
11:53 PM,75.9,66.0,71,29.86,10.0,Calm,Calm,-,N/A,,Overcast,0,2013-09-24 04:53:00